Weather History for KHRT - August, 2013

Change the Weather History Date:

Friday, August 16, 2013

  Actual Average Record
Temperature  
Mean Temperature 78 °F -  
Max Temperature 82 °F 87 °F 92 °F (2007)
Min Temperature 73 °F 72 °F 65 °F (2011)
Cooling Degree Days 12    
Growing Degree Days 28 (Base 50)    
Moisture  
Dew Point 72 °F    
Average Humidity 87    
Maximum Humidity 94    
Minimum Humidity 73    
Precipitation  
Precipitation 1.30 in - - ()
Sea Level Pressure  
Sea Level Pressure 29.96 in    
Wind  
Wind Speed 4 mph (ENE)    
Max Wind Speed 10 mph    
Max Gust Speed -    
Visibility 8 miles    
Events Fog , Rain , Thunderstorm    
Averages and records for this station are not official NWS values.
T = Trace of Precipitation, MM = Missing Value Source: NWS Daily Summary

Daily Weather History Graph

Daily Weather History Graph

Search for Another Location

Airport or City:

Trip Planner

Search our weather history database for the weather conditions in past years. The results will help you decide how hot, cold, wet, or windy it might be!

Date:

Astronomy

Aug. 16, 2013 Rise Set
Actual Time 6:14 AM CDT 7:27 PM CDT
Civil Twilight 5:49 AM CDT 7:52 PM CDT
Nautical Twilight 5:19 AM CDT 8:22 PM CDT
Astronomical Twilight 4:48 AM CDT 8:53 PM CDT
Moon 3:37 PM CDT (8/16) 1:24 AM CDT (8/16)
Length of Visible Light 14h 03m
Length of Day
13h 12m
Waxing Gibbous, 75% of the Moon is Illuminated
Aug 16
Waxing Gibbous
Aug 20
Full
Aug 28
Last Quarter
Sep 5
New
Sep 12
First Quarter

Hourly Weather History & Observations

Time (CDT) Temp. Heat Index Dew Point Humidity Pressure Visibility Wind Dir Wind Speed Gust Speed Precip Events Conditions
12:08 AM 77.0 °F - 73.4 °F 89% 29.95 in 10.0 mi North 4.6 mph - N/A   Scattered Clouds
12:58 AM 76.5 °F - 73.0 °F 89% 29.96 in 10.0 mi North 4.6 mph - N/A   Mostly Cloudy
1:58 AM 75.7 °F - 72.3 °F 89% 29.94 in 10.0 mi NNE 6.9 mph - N/A   Clear
2:58 AM 75.6 °F - 72.1 °F 89% 29.93 in 10.0 mi NE 3.5 mph - N/A   Clear
3:58 AM 75.0 °F - 72.3 °F 91% 29.93 in 10.0 mi NNE 3.5 mph - N/A   Partly Cloudy
4:23 AM 75.2 °F - 71.6 °F 89% 29.93 in 10.0 mi ESE 3.5 mph - N/A Rain Light Rain
4:28 AM 75.2 °F - 73.4 °F 94% 29.92 in 10.0 mi ENE 4.6 mph - N/A Rain Light Rain
4:34 AM 75.2 °F - 71.6 °F 89% 29.92 in 10.0 mi NE 4.6 mph - N/A Thunderstorm Overcast
4:44 AM 75.2 °F - 71.6 °F 89% 29.92 in 10.0 mi NE 3.5 mph - N/A Thunderstorm Scattered Clouds
4:49 AM 75.2 °F - 71.6 °F 89% 29.93 in 10.0 mi NE 4.6 mph - N/A   Mostly Cloudy
4:54 AM 75.2 °F - 71.6 °F 89% 29.93 in 10.0 mi NNE 4.6 mph - N/A   Mostly Cloudy
4:58 AM 75.2 °F - 72.5 °F 91% 29.94 in 10.0 mi NNE 5.8 mph - 0.00 in   Mostly Cloudy
5:13 AM 75.2 °F - 71.6 °F 89% 29.93 in 10.0 mi NE 4.6 mph - N/A   Mostly Cloudy
5:16 AM 75.2 °F - 71.6 °F 89% 29.94 in 9.0 mi East 3.5 mph - N/A Rain Light Rain
5:21 AM 75.2 °F - 71.6 °F 89% 29.94 in 2.0 mi East 4.6 mph - N/A Rain Heavy Rain
5:26 AM 75.2 °F - 71.6 °F 89% 29.95 in 1.2 mi East 3.5 mph - N/A Rain Heavy Rain
5:31 AM 75.2 °F - 71.6 °F 89% 29.95 in 1.8 mi Variable 2.3 mph - N/A Rain Heavy Rain
5:36 AM 75.2 °F - 71.6 °F 89% 29.96 in 1.5 mi West 4.6 mph - N/A Rain Heavy Rain
5:41 AM 75.2 °F - 73.4 °F 94% 29.95 in 1.0 mi NNW 1.2 mph - N/A Rain Heavy Rain
5:46 AM 75.2 °F - 71.6 °F 89% 29.94 in 0.5 mi NNE 2.3 mph - N/A Fog , Rain Heavy Rain
5:51 AM 73.4 °F - 69.8 °F 88% 29.94 in 0.8 mi North 3.5 mph - N/A Rain Heavy Rain
5:58 AM 73.4 °F - 69.8 °F 88% 29.95 in 1.8 mi NE 3.5 mph - 0.60 in Rain Heavy Rain
5:59 AM 73.4 °F - 69.8 °F 88% 29.94 in 3.0 mi Calm Calm - N/A Rain , Thunderstorm Heavy Thunderstorms and Rain
6:04 AM 73.4 °F - 71.6 °F 94% 29.94 in 3.0 mi NE 3.5 mph - N/A Rain , Thunderstorm Thunderstorms and Rain
6:13 AM 73.4 °F - 69.8 °F 88% 29.95 in 4.0 mi SSE 4.6 mph - N/A Rain , Thunderstorm Rain
6:18 AM 73.4 °F - 71.6 °F 94% 29.95 in 2.0 mi SSE 4.6 mph - N/A Rain , Thunderstorm Heavy Rain
6:28 AM 73.4 °F - 69.8 °F 88% 29.95 in 5.0 mi SSE 6.9 mph - N/A Rain Light Rain
6:50 AM 73.4 °F - 71.6 °F 94% 29.95 in 10.0 mi NNE 3.5 mph - N/A   Scattered Clouds
6:58 AM 74.1 °F - 71.1 °F 90% 29.95 in 10.0 mi North 4.6 mph - 0.19 in   Scattered Clouds
7:59 AM 75.2 °F - 71.6 °F 89% 29.98 in 10.0 mi NNE 3.5 mph - N/A   Mostly Cloudy
8:55 AM 77.0 °F - 73.4 °F 89% 29.97 in 10.0 mi NE 5.8 mph - N/A   Mostly Cloudy
9:18 AM 77.0 °F - 73.4 °F 89% 29.97 in 10.0 mi NNE 3.5 mph - N/A   Overcast
9:59 AM 77.0 °F - 73.4 °F 89% 30.00 in 10.0 mi NE 3.5 mph - N/A   Overcast
10:32 AM 77.0 °F - 73.4 °F 89% 30.00 in 5.0 mi NE 4.6 mph - N/A Rain Light Rain Showers
10:49 AM 77.0 °F - 73.4 °F 89% 29.99 in 5.0 mi North 4.6 mph - N/A Rain Light Rain
10:55 AM 77.0 °F - 73.4 °F 89% 30.00 in 5.0 mi NNE 4.6 mph - 0.02 in Rain Rain
11:56 AM 77.0 °F - 73.4 °F 89% 29.99 in 5.0 mi North 3.5 mph - 0.05 in Rain Light Rain
12:31 PM 78.8 °F - 73.4 °F 83% 29.95 in 10.0 mi NNE 6.9 mph - N/A   Mostly Cloudy
12:55 PM 80.6 °F 85.4 °F 73.4 °F 79% 29.96 in 10.0 mi NE 4.6 mph - 0.00 in   Mostly Cloudy
1:37 PM 80.6 °F 85.4 °F 73.4 °F 79% 29.96 in 10.0 mi ENE 3.5 mph - N/A   Mostly Cloudy
1:57 PM 82.4 °F 88.2 °F 73.4 °F 74% 29.96 in 10.0 mi Variable 2.3 mph - N/A   Mostly Cloudy
2:08 PM 82.4 °F 88.2 °F 73.4 °F 74% 29.95 in 10.0 mi NNW 2.3 mph - N/A Rain Light Rain
2:09 PM 82.4 °F 88.2 °F 73.4 °F 74% 29.95 in 10.0 mi NNW 2.3 mph - N/A   Mostly Cloudy
2:58 PM 81.5 °F 86.1 °F 72.0 °F 73% 29.94 in 10.0 mi NNE 3.5 mph - 0.00 in   Overcast
3:03 PM 80.6 °F 84.6 °F 71.6 °F 74% 29.93 in 10.0 mi Variable 3.5 mph - N/A   Overcast
3:14 PM 80.6 °F 85.4 °F 73.4 °F 79% 29.93 in 10.0 mi North 10.4 mph - N/A Rain Light Rain
3:29 PM 78.8 °F - 73.4 °F 83% 29.93 in 5.0 mi North 5.8 mph - N/A Rain Rain
3:39 PM 77.0 °F - 73.4 °F 89% 29.93 in 2.5 mi NE 2.3 mph - N/A Rain Rain
3:44 PM 77.0 °F - 73.4 °F 89% 29.94 in 3.0 mi East 2.3 mph - N/A Rain Light Rain
3:54 PM 77.0 °F - 73.4 °F 89% 29.94 in 2.5 mi ENE 2.3 mph - N/A Rain Heavy Rain
3:58 PM 77.7 °F - 72.9 °F 85% 29.95 in 2.0 mi ENE 3.5 mph - 0.13 in Rain Heavy Rain
4:03 PM 77.0 °F - 73.4 °F 89% 29.94 in 1.0 mi East 4.6 mph - N/A Rain Heavy Rain
4:08 PM 77.0 °F - 73.4 °F 89% 29.94 in 1.0 mi ESE 5.8 mph - N/A Rain Heavy Rain
4:13 PM 77.0 °F - 73.4 °F 89% 29.94 in 2.0 mi East 5.8 mph - N/A Rain Light Rain
4:18 PM 77.0 °F - 73.4 °F 89% 29.94 in 5.0 mi East 5.8 mph - N/A Rain Light Rain
4:48 PM 75.2 °F - 71.6 °F 89% 29.95 in 6.0 mi SE 6.9 mph - N/A Rain Light Rain
4:53 PM 75.2 °F - 71.6 °F 89% 29.95 in 9.0 mi SSE 5.8 mph - N/A Rain Light Rain
4:58 PM 75.4 °F - 71.6 °F 88% 29.96 in 10.0 mi South 4.6 mph - 0.25 in Rain Light Rain
5:03 PM 75.2 °F - 71.6 °F 89% 29.95 in 10.0 mi SSE 4.6 mph - N/A   Light Drizzle
5:04 PM 75.2 °F - 71.6 °F 89% 29.95 in 10.0 mi SE 4.6 mph - N/A   Overcast
5:05 PM 75.2 °F - 71.6 °F 89% 29.95 in 5.0 mi SE 4.6 mph - N/A Rain , Thunderstorm Light Thunderstorms and Rain
5:25 PM 75.2 °F - 71.6 °F 89% 29.96 in 10.0 mi SE 4.6 mph - N/A Rain Light Rain
5:26 PM 75.2 °F - 71.6 °F 89% 29.96 in 10.0 mi SE 3.5 mph - N/A   Light Drizzle
5:36 PM 75.2 °F - 71.6 °F 89% 29.96 in 10.0 mi Calm Calm - N/A   Light Drizzle
5:51 PM 77.0 °F - 69.8 °F 78% 29.96 in 10.0 mi SE 2.3 mph - N/A   Light Drizzle
5:58 PM 76.3 °F - 70.9 °F 83% 29.97 in 10.0 mi ESE 2.3 mph - 0.02 in   Light Drizzle
5:59 PM 77.0 °F - 71.6 °F 83% 29.96 in 10.0 mi ESE 2.3 mph - N/A   Overcast
6:02 PM 77.0 °F - 71.6 °F 83% 29.96 in 10.0 mi ESE 2.3 mph - N/A   Light Drizzle
6:13 PM 77.0 °F - 71.6 °F 83% 29.96 in 10.0 mi East 1.2 mph - N/A   Overcast
6:58 PM 77.4 °F - 73.8 °F 89% 29.97 in 10.0 mi East 4.6 mph - 0.00 in   Overcast
7:58 PM 76.8 °F - 72.9 °F 88% 29.99 in 10.0 mi NE 1.2 mph - N/A   Overcast
8:00 PM 77.0 °F - 73.4 °F 89% 29.98 in 10.0 mi East 2.3 mph - N/A   Light Drizzle
8:58 PM 76.1 °F - 72.3 °F 88% 30.01 in 10.0 mi East 3.5 mph - 0.00 in   Light Drizzle
9:53 PM 75.2 °F - 71.6 °F 89% 30.01 in 10.0 mi East 4.6 mph - N/A   Mostly Cloudy
9:58 PM 75.6 °F - 72.1 °F 89% 30.02 in 10.0 mi East 4.6 mph - 0.01 in   Mostly Cloudy
10:01 PM 75.2 °F - 71.6 °F 89% 30.01 in 10.0 mi East 4.6 mph - N/A Rain Light Rain
10:58 PM 74.8 °F - 72.1 °F 91% 30.01 in 10.0 mi NE 4.6 mph - 0.02 in Rain Light Rain
11:38 PM 75.2 °F - 71.6 °F 89% 30.00 in 10.0 mi NE 4.6 mph - N/A   Scattered Clouds
11:58 PM 74.7 °F - 72.3 °F 92% 30.00 in 10.0 mi NNE 8.1 mph - 0.01 in   Scattered Clouds
11:59 PM 75.2 °F - 71.6 °F 89% 29.99 in 10.0 mi NNE 8.1 mph - N/A   Light Drizzle